Regional Weather Roundup
Issued by NWS

Home | Current Version | Previous Version | Graphics & Text | Print | Product List | Glossary On
Versions: 1 2 3 4 5 6 7 8 9 10 11 12 13 14 15 16 17 18 19 20 21 22 23 24 25 26 27
000
ASUS45 KBOU 291410
RWRCO

WEATHER ROUNDUP FOR COLORADO
NATIONAL WEATHER SERVICE DENVER/BOULDER CO
800 AM MDT THU SEP 29 2016

NOTE: "FAIR" INDICATES FEW OR NO CLOUDS BELOW 12000 FEET WITH NO
SIGNIFICANT WEATHER AND/OR OBSTRUCTIONS TO VISIBILITY.

COZ001>005-013-030-031-291500-
...NORTHWEST COLORADO...

CITY           SKY/WX    TMP DP  RH WIND       PRES   REMARKS
CRAIG          FAIR      48  41  76 SW5       30.42R
HAYDEN         FAIR      48  30  49 E12       30.43R
MEEKER         MOCLDY    52  39  61 NE3       30.44R
MOUNT WERNER   NOT AVBL
STEAMBOAT SPGS FAIR      43  33  68 CALM      30.46R
WALDEN           N/A     37  27  65 SE5       30.53R
$$

COZ006>008-011-291500-
...WEST CENTRAL VALLEYS...

CITY           SKY/WX    TMP DP  RH WIND       PRES   REMARKS
GRAND JUNCTION CLOUDY    58  53  84 W8        30.35R
MONTROSE       CLOUDY    57  42  57 CALM      30.42R
EAGLE          SUNNY     43  30  61 CALM      30.50R
RIFLE          FAIR      56  43  61 NW5       30.41R
DELTA          CLOUDY    59  43  55 N7        30.38R
NUCLA          DRIZZLE   55  46  71 E6        30.45R
$$

COZ017>023-064>068-291500-
...SOUTHWEST COLORADO...

CITY           SKY/WX    TMP DP  RH WIND       PRES   REMARKS
DURANGO        CLOUDY    56  41  57 CALM      30.50R
CORTEZ         CLOUDY    58  50  75 N6        30.43R
PAGOSA SPRINGS PTSUNNY   49  33  53 CALM      30.55R
TELLURIDE      CLOUDY    54  36  50 S10       30.60R
WOLF CREEK PAS PTSUNNY   39  27  60 MISG      30.79R
$$

COZ009-010-012-014-032>034-037-058>063-291500-
...CENTRAL COLORADO...

CITY           SKY/WX    TMP DP  RH WIND       PRES   REMARKS
ASPEN          FAIR      47  34  60 S3        30.50R
BUENA VISTA    FAIR      43  28  56 CALM      30.56R
COPPER MTN     FAIR      50  25  37 S9        30.76R
BERTHOUD PASS  FAIR      39  27  60 N16       30.78R
COTTONWOOD PAS CLOUDY    52  27  37 CALM      30.64S
GUNNISON       FAIR      43  30  61 E6        30.55R
KREMMLING      FAIR      39  28  65 CALM      30.54R
LEADVILLE      FAIR      36  25  64 CALM      30.64R
MONARCH PASS   FAIR      41  25  52 SW9       30.86R
SALIDA         FAIR      47  29  50 W3        30.62R
SUNLIGHT       FAIR      46  32  57 SW9       30.70S
WILKERSON PASS FAIR      43  23  45 SW10      30.74R
$$

COZ069>075-291500-
...SAN LUIS VALLEY/SANGRE DE CRISTO MOUNTAINS...

CITY           SKY/WX    TMP DP  RH WIND       PRES   REMARKS
ALAMOSA        FAIR      48  28  46 CALM      30.54R
LA VETA PASS   FAIR      45  25  45 MISG      30.67R
SAGUACHE       NOT AVBL
$$

COZ035-036-038>040-291500-
...NORTHERN COLORADO FRONT RANGE...

CITY           SKY/WX    TMP DP  RH WIND       PRES   REMARKS
DENVER INTL AP FAIR      55  37  50 SW6       30.37R
DMNS CITY PARK   N/A     57  40  51 E8        30.37S
AURORA         MOSUNNY   55  38  53 SW6       30.38R
FRONT RANGE AP MOSUNNY   55  37  50 W3        30.38R
ERIE MUNI ARPT FAIR      47  39  74 CALM      30.36S
BOULDER MUN AP FAIR      52  36  54 CALM      30.37R
CENTENNIAL     FAIR      54  36  50 CALM      30.38R
BROOMFIELD     MOSUNNY   50  37  62 CALM      30.38R
FORT COLLINS   FAIR      48  41  76 N6        30.36S
LONGMONT       FAIR      49  40  70 CALM      30.38R
$$

COZ041-046-047-076>085-087-088-291500-
...PIKES PEAK/PALMER DIVIDE AND SOUTHERN FOOTHILLS...

CITY           SKY/WX    TMP DP  RH WIND       PRES   REMARKS
COLO. SPRINGS  FAIR      52  39  61 CALM      30.46R
A. F. ACADEMY  FAIR      43  35  74 VRB6      30.45S
SCHRIEVER AFB  NOT AVBL
ELLICOTT       NOT AVBL
FALCON         FAIR      49  40  69 CALM      30.48R
FORT CARSON    FAIR      51  39  62 S1        30.43R
LIMON          FAIR      45  39  79 SE6       30.43R
MONUMENT HILL  FAIR      52  36  54 S13       30.46R
TRINIDAD       FAIR      52  31  44 W9        30.43R HAZE
$$

COZ042>045-048>051-090-091-291500-
...NORTHEAST COLORADO...

CITY           SKY/WX    TMP DP  RH WIND       PRES   REMARKS
GREELEY ARPT   FAIR      46  39  76 CALM      30.36R
AKRON          FAIR      53  39  59 S9        30.38R
BURLINGTON     FAIR      52  39  61 S14       30.41R
WRAY           NOT AVBL
STERLING       FAIR      50  41  71 CALM      30.36R
HOLYOKE        FAIR      46  41  81 SE5       30.40R
FORT MORGAN    FAIR      52  40  63 SE3       30.37S
$$

COZ086-089-092>099-291500-
...SOUTHEAST COLORADO...

CITY           SKY/WX    TMP DP  RH WIND       PRES   REMARKS
PUEBLO         FAIR      53  40  61 N7        30.41R
LA JUNTA       FAIR      51  41  68 E5        30.38R
LAMAR          FAIR      50  39  66 E3        30.38S
SPRINGFIELD      N/A     51  44  77 S9        30.43R
$$




USA.gov is the U.S. government's official web portal to all federal, state and local government web resources and services.